sat.trackr.live / text

‹ back to catalog

GRUS-1D

NORAD 47936 · 2021-022E

PAYLOAD ACTIVE UNKNOWN

§ Identity

Operator
Country
JPN
Launch date
2021-03-22
Launch site
TYMSC
Launch vehicle
Mass (kg)
RCS (m²)

External: N2YO · Heavens-Above · Gunter

§ Orbital elements

Epoch: 2026-05-25T05:34:41.449152Z

Period
96.09 min
Inclination
97.5427°
Eccentricity
0.0012856
Mean motion
14.98639933 rev/d
Perigee alt
562.2 km
Apogee alt
580.0 km
Semi-major
6,949.2 km
B*
1.6813e-4
RAAN
29.3854°
Arg perigee
34.4964°
Mean anomaly
325.7091°
Rev number
28,246

§ Raw data

GRUS-1D1 47936U 21022E   26145.23242418  .00001964  00000+0  16813-3 0  99912 47936  97.5427  29.3854 0012856  34.4964 325.7091 14.98639933282462

JSON: /api/v1/satellites/47936 · /tle

For live sub-satellite position, see the globe view (requires WebGL).

§ Visibility from observer

Set your observer location to see the next 7 days of passes ≥ 10°. The values pass through the URL so the page stays shareable.

No JS? Fill the form by hand. The geolocation button needs JavaScript.

§ Radio — SatNOGS DB

ModeDescriptionDownlinkUplink
FM S-band telemetry 2.276 GHz

1 transmitter · refreshed weekly from db.satnogs.org